OBJECT AF, 63239

Orbit data source: Space-Track

You're viewing an Uncataloged Satellite

Recently launched and/or uncataloged satellites may have evolving metadata. Metadata may include but not limited to: Owner, Maufacturer, Bus, Motor, and Mission.

OBJECT AF, 63239 is a satellite in SSO that was launched on Sat, 15 Mar 2025 UTC via an FALCON 9 launch vehicle from the Air Force Western Test Range (AFWTR). Unknown objects in Earth's orbit typically refer to objects detected orbiting the Earth but have not yet been identified or cataloged. These objects could be anything from previously untracked satellites, spent rocket stages, debris from satellite collisions, or even natural meteoroids temporarily captured by Earth's gravity.

Loading next visibility...
Identifier
63239, 2025-052AF
Orbit
SSO
Country
Flag of TBDTBD
Related business
Flag of ILTel Aviv University (IL)
Manufacturer
ISA/TAU
Mission
Operational Amateur Communications
Bus & Motor
CUBESAT 1U, Unknown motor
Mass
1 kg wet, 1 kg dry
Launch date (UTC)
2025-03-15 (1 year ago)
Launch vehicle
FALCON 9
Launch site
Air Force Western Test Range (AFWTR)
Object type
Unknown
Shape & HBR
Box, 0.1 m
Radar Cross Section
0.015 m², Medium (>0.1 m² and < 1m²)

Expand to show TLE details & history
Last TLE update: 9 hours ago

TLE from 9 hours ago
0 OBJECT AF
1 63239U 25052AF  26175.19604222  .00014524  00000-0  47520-3 0  9991
2 63239  97.3938  70.3983 0008326 112.7098 247.5025 15.31766604 71092
Epoch: 2026-06-24T04:42Z
TLE epoch observation values (Epoch: 2026-06-24T04:42:18.047Z)
Latitude
0.00001°
Longitude
87.46637°
Altitude
475.835 km
Speed
7.627 km/s
True Right ascension
04h 41m 35s
True Declination
0° 00' 00"
Sunlit
Object was in daylight at epoch
Visualization orbit readout
Latitude
Unknown
Longitude
Unknown
Altitude
Unknown
Speed
Unknown
Apparent Right ascension
Unknown
Apparent Declination
Unknown
Sunlit
N/A
Visualization observer readout
Local Sidereal Time
00:59:34
Azimuth
Unknown
Elevation
Unknown
Doppler factor
Unknown
Orbital elements
Apogee altitude
473.191 km
Perigee altitude
461.791 km
Semi-major axis
6,845.628 km
Eccentricity
0.00083
Inclination
97.3938°
RAAN
70.3983°
Arg. of periapsis
112.7098°
True anomaly
247.41439°
Mean anomaly
247.5025°
Eccentric anomaly
247.45844°
Mean motion
3.83198 °/min
Orbital period
93.95 mins
BSTAR
0.0004752
Loading maneuver chart data...
Computing Atmospheric mass density...
Loading historical data...
Loading historical data...
Loading historical data...
Loading historical data...
Loading historical data...
Loading historical data...
Loading historical data...

Documentation

Showing up to 5 results
|